time_stamp(utc),avg(mph),gust(mph),direction(deg),12m_air_temp(f),sonic_u(cm/s),sonic_v(cm/s),sonic_w(cm/s),pressure,2m_air_temp(f),pyranometer(W/m^2)
"2020-11-07 00:02:39+00",9.6,11.6,,57.4,-284,-305,-4,1024.16,55,0
"2020-11-07 00:07:39+00",9.2,10.2,,57.1,-270,-304,-2,1024.11,55,0
"2020-11-07 00:12:39+00",8.2,9.2,,56.9,-209,-305,-1,1024.08,54.8,0
"2020-11-07 00:17:39+00",9.6,10.6,,57.2,-232,-350,-2,1024.07,54.7,0
"2020-11-07 00:22:39+00",10.6,11.6,,57.4,-308,-378,-3,1024.08,54.8,0
"2020-11-07 00:27:39+00",9.6,10.6,,57.2,-275,-344,-3,1024.11,55.1,0
"2020-11-07 00:32:39+00",8.9,9.9,,56.9,-253,-309,1,1024.06,55,0
"2020-11-07 00:37:39+00",9.7,10.7,,56.7,-283,-324,-3,1024.09,54.9,0
"2020-11-07 00:42:39+00",10.0,11.0,,56.8,-310,-301,-3,1024.16,54.9,0
"2020-11-07 00:47:39+00",9.5,10.5,,56.9,-302,-280,0,1024.18,55,0
"2020-11-07 00:52:39+00",9.6,10.6,,57,-320,-276,-4,1024.21,55,0
"2020-11-07 00:57:39+00",9.2,10.2,,57.1,-309,-265,0,1024.21,55.1,0
"2020-11-07 01:02:39+00",9.6,10.6,,57.1,-314,-276,0,1024.18,55.1,0
"2020-11-07 01:07:39+00",8.7,9.7,,56.8,-266,-276,-2,1024.13,55.2,0
"2020-11-07 01:12:39+00",8.9,9.9,,56.7,-268,-274,-5,1024.24,55.1,0
"2020-11-07 01:17:39+00",8.6,9.6,,56.8,-262,-277,-4,1024.22,55,0
"2020-11-07 01:22:39+00",9.2,10.2,,56.8,-287,-279,-2,1024.21,55.1,0
"2020-11-07 01:27:39+00",9.4,10.4,,56.9,-313,-272,1,1024.25,55.1,0
"2020-11-07 01:32:39+00",9.3,10.3,,56.9,-288,-283,-2,1024.2,55.3,0
"2020-11-07 01:37:39+00",8.7,9.7,,57,-257,-274,-2,1024.39,55.4,0
"2020-11-07 01:42:39+00",7.4,8.4,,56.8,-241,-213,-4,1024.36,55.3,0
"2020-11-07 01:47:39+00",7.3,8.3,,56.8,-253,-200,-5,1024.41,55.1,0
"2020-11-07 01:52:39+00",7.5,7.5,,56.9,-252,-210,-6,1024.38,55,0
"2020-11-07 01:57:39+00",7.9,8.9,,57.1,-256,-228,-3,1024.43,55.1,0
"2020-11-07 02:02:39+00",7.9,8.9,,57.2,-247,-232,-5,1024.55,55.2,0
"2020-11-07 02:07:39+00",6.9,7.9,,57.1,-205,-207,-5,1024.68,55,0
"2020-11-07 02:12:39+00",6.4,6.4,,57.1,-177,-192,-1,1024.72,54.9,0
"2020-11-07 02:17:39+00",8.2,8.2,,57.4,-234,-252,-4,1024.7,54.7,0
"2020-11-07 02:22:39+00",7.4,8.4,,57.6,-234,-290,1,1024.75,54.8,0
"2020-11-07 02:27:39+00",8.6,8.6,,57.5,-242,-265,1,1024.77,54.8,0
"2020-11-07 02:32:39+00",8.8,8.8,,57.5,-249,-267,1,1024.72,54.7,0
"2020-11-07 02:37:39+00",8.6,8.6,,57.7,-270,-258,0,1024.66,54.7,0
"2020-11-07 02:42:39+00",8.6,8.6,,57.7,-281,-251,-3,1024.65,54.6,0
"2020-11-07 02:47:39+00",8.9,8.9,,57.7,-300,-251,-4,1024.69,54.6,0
"2020-11-07 02:52:39+00",8.5,8.5,,57.5,-280,-245,-5,1024.6,54.5,0
"2020-11-07 02:57:39+00",8.5,8.5,,57.4,-317,-218,5,1024.58,54.4,0
"2020-11-07 03:02:39+00",7.5,8.5,,57.3,-323,-189,3,1024.66,54.3,0
"2020-11-07 03:07:39+00",7.6,7.6,,57.2,-310,-194,6,1024.64,54.2,0
"2020-11-07 03:12:39+00",8.0,8.0,,57.3,-273,-222,-1,1024.68,54.3,0
"2020-11-07 03:17:39+00",8.3,9.3,,57.1,-253,-246,-2,1024.7,54.3,0
"2020-11-07 03:22:39+00",8.0,8.0,,57.1,-255,-232,-3,1024.65,54.2,0
"2020-11-07 03:27:39+00",7.3,7.3,,56.8,-208,-231,1,1024.6,54,0
"2020-11-07 03:32:39+00",7.6,7.6,,56.7,-229,-226,-1,1024.64,53.9,0
"2020-11-07 03:37:39+00",7.6,7.6,,56.5,-244,-223,1,1024.59,53.9,0
"2020-11-07 03:42:39+00",6.9,7.9,,56.4,-260,-174,6,1024.53,53.8,0
"2020-11-07 03:47:39+00",6.1,6.1,,56.3,-236,-153,6,1024.6,53.6,0
"2020-11-07 03:52:39+00",6.2,6.2,,56.3,-218,-161,2,1024.62,53.3,0
"2020-11-07 03:57:39+00",5.8,5.8,,56.2,-188,-166,-1,1024.63,53.3,0
"2020-11-07 04:02:39+00",5.9,5.9,,56.2,-194,-167,-1,1024.7,53.3,0
"2020-11-07 04:07:39+00",5.6,6.6,,56.2,-219,-139,4,1024.72,53.1,0
"2020-11-07 04:12:39+00",5.6,6.6,,56.1,-226,-114,-1,1024.69,52.9,0
"2020-11-07 04:17:39+00",6.2,6.2,,55.9,-232,-94,6,1024.66,52.7,0
"2020-11-07 04:22:39+00",4.9,4.9,,55.8,-203,-107,-1,1024.77,52.6,0
"2020-11-07 04:27:39+00",4.7,4.7,,55.7,-191,-99,-4,1024.76,52.4,0
"2020-11-07 04:32:39+00",5.2,5.2,,55.6,-200,-92,-3,1024.68,52.3,0
"2020-11-07 04:37:39+00",5.4,5.4,,55.6,-204,-85,1,1024.72,52.2,0
"2020-11-07 04:42:39+00",5.2,5.2,,55.5,-196,-88,1,1024.76,52,0
"2020-11-07 04:47:39+00",4.4,4.4,,55.5,-171,-109,5,1024.72,52,0
"2020-11-07 04:52:39+00",4.2,5.2,,55.4,-136,-115,1,1024.7,51.9,0
"2020-11-07 04:57:39+00",4.7,4.7,,55.4,-139,-137,-2,1024.76,51.9,0
"2020-11-07 05:02:39+00",5.2,5.2,,55.4,-170,-148,6,1024.68,51.9,0
"2020-11-07 05:07:39+00",5.9,6.9,,55.4,-182,-170,2,1024.6,51.8,0
"2020-11-07 05:12:39+00",6.7,6.7,,55.4,-197,-201,3,1024.58,52.1,0
"2020-11-07 05:17:39+00",6.9,7.9,,55.5,-252,-178,5,1024.56,52.2,0
"2020-11-07 05:22:39+00",5.8,5.8,,55.6,-252,-143,4,1024.55,52.2,0
"2020-11-07 05:27:39+00",6.0,7.0,,55.7,-221,-153,8,1024.59,52.2,0
"2020-11-07 05:32:39+00",6.1,6.1,,55.8,-248,-124,-2,1024.59,52.2,0
"2020-11-07 05:37:39+00",6.8,7.8,,56,-280,-139,1,1024.49,52.1,0
"2020-11-07 05:42:39+00",7.2,7.2,,56.2,-278,-122,2,1024.54,52.1,0
"2020-11-07 05:47:39+00",6.2,6.2,,56.1,-262,-156,3,1024.45,52,0
"2020-11-07 05:52:39+00",7.4,8.4,,56.1,-265,-198,2,1024.43,52.2,0
"2020-11-07 05:57:39+00",6.8,6.8,,56,-244,-177,2,1024.56,52.1,0
"2020-11-07 06:02:39+00",7.2,7.2,,56,-270,-186,5,1024.48,52,0
"2020-11-07 06:07:39+00",6.8,6.8,,56,-283,-170,5,1024.55,51.9,0
"2020-11-07 06:12:39+00",7.0,8.0,,56,-301,-162,0,1024.64,51.7,0
"2020-11-07 06:17:39+00",7.4,8.4,,55.9,-309,-157,3,1024.56,51.6,0
"2020-11-07 06:22:39+00",7.8,7.8,,55.9,-310,-147,5,1024.58,51.5,0
"2020-11-07 06:27:39+00",8.3,9.3,,55.9,-324,-150,5,1024.53,51.4,0
"2020-11-07 06:32:39+00",7.9,8.9,,55.8,-323,-161,4,1024.55,51.4,0
"2020-11-07 06:37:39+00",7.3,8.3,,55.7,-316,-183,6,1024.56,51.5,0
"2020-11-07 06:42:39+00",7.3,8.3,,55.5,-309,-186,6,1024.57,51.6,0
"2020-11-07 06:47:39+00",7.7,7.7,,55.4,-317,-195,8,1024.66,51.8,0
"2020-11-07 06:52:39+00",8.5,8.5,,55.4,-303,-223,4,1024.65,51.9,0
"2020-11-07 06:57:39+00",8.3,9.3,,55.4,-317,-214,9,1024.64,51.9,0
"2020-11-07 07:02:39+00",7.0,7.0,,55.4,-308,-174,6,1024.61,51.8,0
"2020-11-07 07:07:39+00",7.8,8.8,,55.3,-313,-150,1,1024.58,51.6,0
"2020-11-07 07:12:39+00",7.9,8.9,,55.1,-310,-144,3,1024.69,51.6,0
"2020-11-07 07:17:39+00",7.7,8.7,,55,-318,-160,3,1024.75,51.6,0
"2020-11-07 07:22:39+00",8.4,9.4,,54.9,-341,-163,3,1024.74,51.5,0
"2020-11-07 07:27:39+00",9.7,10.7,,54.9,-382,-170,5,1024.79,51.5,0
"2020-11-07 07:32:39+00",9.5,10.5,,54.8,-370,-140,5,1024.77,51.7,0
"2020-11-07 07:37:39+00",8.5,9.5,,54.4,-338,-114,6,1024.7,51.8,0
"2020-11-07 07:42:39+00",8.2,9.2,,54.2,-346,-89,2,1024.71,51.8,0
"2020-11-07 07:47:39+00",7.5,7.5,,54.3,-318,-69,-1,1024.75,51.7,0
"2020-11-07 07:52:39+00",6.8,7.8,,54.3,-285,-72,2,1024.76,51.5,0
"2020-11-07 07:57:39+00",6.6,6.6,,54.2,-266,-85,3,1024.69,51.3,0
"2020-11-07 08:02:39+00",6.7,6.7,,54.1,-264,-90,3,1024.7,51.1,0
"2020-11-07 08:07:39+00",6.3,7.3,,54,-245,-113,1,1024.81,50.9,0
"2020-11-07 08:12:39+00",5.9,5.9,,53.8,-250,-147,6,1024.9,50.8,0
"2020-11-07 08:17:39+00",6.0,6.0,,53.6,-256,-147,5,1024.86,50.6,0
"2020-11-07 08:22:39+00",6.2,6.2,,53.5,-239,-158,5,1024.88,50.4,0
"2020-11-07 08:27:39+00",7.0,7.0,,53.4,-252,-185,3,1024.78,50.4,0
"2020-11-07 08:32:39+00",7.4,8.4,,53.5,-267,-197,6,1024.69,50.5,0
"2020-11-07 08:37:39+00",7.5,8.5,,53.6,-254,-212,3,1024.76,50.8,0
"2020-11-07 08:42:39+00",7.2,7.2,,53.9,-256,-185,4,1024.68,51,0
"2020-11-07 08:47:39+00",5.8,5.8,,53.9,-252,-144,3,1024.8,50.9,0
"2020-11-07 08:52:39+00",6.6,6.6,,53.8,-255,-102,2,1024.83,50.9,0
"2020-11-07 08:57:39+00",7.7,7.7,,53.7,-306,-108,8,1024.91,50.8,0
"2020-11-07 09:02:39+00",7.9,8.9,,53.6,-330,-98,5,1024.81,50.8,0
"2020-11-07 09:07:39+00",7.8,8.8,,53.6,-336,-53,3,1024.83,50.7,0
"2020-11-07 09:12:39+00",7.4,8.4,,53.6,-314,-55,1,1024.88,50.6,0
"2020-11-07 09:17:39+00",7.8,8.8,,53.6,-321,-102,5,1024.8,50.5,0
"2020-11-07 09:22:39+00",8.2,8.2,,53.4,-332,-110,4,1024.71,50.3,0
"2020-11-07 09:27:39+00",7.4,8.4,,53.2,-308,-78,0,1024.84,50.2,0
"2020-11-07 09:32:39+00",6.8,7.8,,53,-279,-141,2,1024.84,50,0
"2020-11-07 09:37:39+00",7.3,8.3,,52.7,-288,-127,2,1024.93,50,0
"2020-11-07 09:42:39+00",7.1,7.1,,52.7,-299,-70,2,1024.87,49.9,0
"2020-11-07 09:47:39+00",6.9,7.9,,52.6,-293,-64,1,1024.88,49.9,0
"2020-11-07 09:52:39+00",7.2,7.2,,52.7,-308,-63,2,1024.85,49.9,0
"2020-11-07 09:57:39+00",8.2,8.2,,52.7,-347,-89,1,1024.91,49.8,0
"2020-11-07 10:02:39+00",7.3,8.3,,52.6,-321,-26,-1,1025.12,49.6,0
"2020-11-07 10:07:39+00",8.1,8.1,,52.7,-351,-37,2,1025.02,49.6,0
"2020-11-07 10:12:39+00",7.6,7.6,,52.6,-333,-31,1,1024.97,49.6,0
"2020-11-07 10:17:39+00",8.4,9.4,,52.7,-364,14,-4,1024.98,49.6,0
"2020-11-07 10:22:39+00",8.7,9.7,,52.6,-388,45,-4,1025.06,49.9,0
"2020-11-07 10:27:39+00",8.3,9.3,,52.2,-360,82,3,1025.01,49.9,0
"2020-11-07 10:32:39+00",7.4,8.4,,51.9,-314,70,0,1024.99,50,0
"2020-11-07 10:37:39+00",6.0,7.0,,52,-266,39,2,1025.01,50,0
"2020-11-07 10:42:39+00",7.8,8.8,,52,-349,8,1,1025.01,50.1,0
"2020-11-07 10:47:39+00",8.8,9.8,,52,-391,7,7,1024.95,50.1,0
"2020-11-07 10:52:39+00",9.2,10.2,,52.1,-415,40,9,1025,50.1,0
"2020-11-07 10:57:39+00",8.6,9.6,,52,-393,68,4,1025.06,50.3,0
"2020-11-07 11:02:39+00",8.9,8.9,,52,-401,-1,6,1025.04,50.4,0
"2020-11-07 11:07:39+00",8.7,9.7,,51.8,-384,-37,2,1025.02,50.3,0
"2020-11-07 11:12:39+00",8.3,9.3,,51.8,-368,-6,6,1025.17,50.1,0
"2020-11-07 11:17:39+00",6.7,7.7,,51.6,-301,8,11,1025.19,50,0
"2020-11-07 11:22:39+00",6.6,7.6,,51.3,-290,-13,1,1025.27,49.7,0
"2020-11-07 11:27:39+00",7.1,7.1,,51.3,-318,22,1,1025.28,49.5,0
"2020-11-07 11:32:39+00",7.0,7.0,,51.2,-300,65,1,1025.38,49.3,0
"2020-11-07 11:37:39+00",7.7,8.7,,51.2,-328,105,3,1025.43,49.2,0
"2020-11-07 11:42:39+00",8.0,8.0,,51.4,-337,118,8,1025.43,49.1,0
"2020-11-07 11:47:39+00",8.3,9.3,,51.6,-333,170,10,1025.45,49.2,0
"2020-11-07 11:52:39+00",7.7,8.7,,51.9,-323,124,4,1025.35,49.3,0
"2020-11-07 11:57:39+00",7.6,7.6,,51.8,-316,132,8,1025.52,49.5,0
"2020-11-07 12:02:39+00",7.1,7.1,,51.8,-286,142,10,1025.61,49.6,0
"2020-11-07 12:07:39+00",7.0,7.0,,51.8,-277,141,9,1025.6,49.9,0
"2020-11-07 12:12:39+00",6.8,7.8,,51.8,-285,103,2,1025.63,50.2,0
"2020-11-07 12:17:39+00",6.9,7.9,,51.8,-293,82,4,1025.62,50.6,0
"2020-11-07 12:22:39+00",6.4,7.4,,51.8,-274,99,6,1025.65,51,0
"2020-11-07 12:27:39+00",6.6,7.6,,51.9,-286,63,6,1025.64,51.5,0
"2020-11-07 12:32:39+00",6.5,7.5,,52.1,-285,11,7,1025.66,51.9,0
"2020-11-07 12:37:39+00",6.3,7.3,,52,-272,9,5,1025.61,52.3,0
"2020-11-07 12:42:39+00",5.9,6.9,,52.1,-248,7,13,1025.61,52.8,0
"2020-11-07 12:47:39+00",5.8,6.8,,52.3,-261,11,6,1025.67,53.3,0
"2020-11-07 12:52:39+00",6.2,7.2,,52.4,-279,7,6,1025.65,53.7,0
"2020-11-07 12:57:39+00",6.2,7.2,,52.4,-274,29,1,1025.75,54.3,0
"2020-11-07 13:02:39+00",5.3,6.3,,52.5,-232,10,13,1025.78,54.8,0
"2020-11-07 13:07:39+00",5.8,6.8,,52.7,-251,1,20,1025.84,55.2,0
"2020-11-07 13:12:39+00",6.5,7.5,,52.9,-291,-8,7,1025.8,55.3,0
"2020-11-07 13:17:39+00",6.3,7.3,,53.3,-273,26,12,1025.84,55.6,0
"2020-11-07 13:22:39+00",6.4,7.4,,53.3,-281,44,14,1025.76,55.9,0
"2020-11-07 13:27:39+00",6.1,7.1,,53.5,-257,93,35,1025.81,56.2,0
"2020-11-07 13:32:39+00",8.5,9.5,,53.4,-364,117,-7,1025.88,56.2,0
"2020-11-07 13:37:39+00",7.1,8.1,,53.5,-320,86,10,1025.98,56.4,0
"2020-11-07 13:42:39+00",8.2,9.2,,53.6,-361,77,7,1025.98,56.6,0
"2020-11-07 13:47:39+00",8.5,9.5,,54,-378,84,10,1025.95,56.9,0
"2020-11-07 13:52:39+00",8.3,9.3,,54.4,-358,70,11,1025.98,57.4,0
"2020-11-07 13:57:39+00",7.7,8.7,,54.9,-339,70,6,1026.05,58,0
"2020-11-07 14:02:39+00",7.5,8.5,,55.5,-332,91,6,1026,58.7,0
"2020-11-07 14:07:39+00",8.0,10.0,,56.2,-343,93,23,1025.93,59.4,0
"2020-11-07 14:12:39+00",8.5,10.5,,56.4,-352,116,36,1025.94,60,0
"2020-11-07 14:17:39+00",9.5,10.5,,56.8,-402,153,7,1026,60.4,0
"2020-11-07 14:22:39+00",10.0,12.0,,57.1,-415,183,16,1025.98,60.3,0
"2020-11-07 14:27:39+00",7.3,9.3,,57.6,-290,129,63,1026,60.5,0
"2020-11-07 14:32:39+00",8.4,9.4,,58,-356,132,-2,1025.94,61.1,0
"2020-11-07 14:37:39+00",7.5,8.5,,58.6,-330,82,13,1025.97,61.9,0
"2020-11-07 14:42:39+00",7.7,8.7,,58.7,-339,81,9,1025.96,62.8,0
"2020-11-07 14:47:39+00",7.2,8.2,,59,-311,53,8,1025.98,63.7,0
"2020-11-07 14:52:39+00",6.7,7.7,,59.4,-290,67,10,1025.99,64.8,0
"2020-11-07 14:57:39+00",6.9,7.9,,59.8,-310,52,7,1025.89,65.8,0
"2020-11-07 15:02:39+00",7.1,8.1,,60.1,-314,41,9,1025.92,66.7,0
"2020-11-07 15:07:39+00",7.4,8.4,,60.3,-334,32,11,1025.82,67.4,0
"2020-11-07 15:12:39+00",6.7,7.7,,60.7,-290,51,-2,1025.83,67.9,0
"2020-11-07 15:17:39+00",5.7,5.7,,61.3,-247,33,1,1025.89,68.6,0
"2020-11-07 15:22:39+00",5.1,6.1,,62,-223,23,16,1025.87,69.7,0
"2020-11-07 15:27:39+00",5.4,6.4,,62.5,-234,-7,1,1025.83,70.8,0
"2020-11-07 15:32:39+00",5.4,6.4,,63.1,-226,53,1,1025.84,71.7,0
"2020-11-07 15:37:39+00",5.2,6.2,,63.6,-220,61,-12,1025.72,72.5,0
"2020-11-07 15:42:39+00",5.2,6.2,,64.2,-219,6,17,1025.77,73.4,0
"2020-11-07 15:47:39+00",5.8,6.8,,64.8,-252,-11,19,1025.8,74.2,0
"2020-11-07 15:52:39+00",4.5,5.5,,65.3,-186,24,44,1025.75,74.8,0
"2020-11-07 15:57:39+00",6.3,7.3,,65.7,-279,41,8,1025.68,75.5,0
"2020-11-07 16:02:39+00",5.8,6.8,,66.2,-256,27,13,1025.63,76.1,0
"2020-11-07 16:07:39+00",6.2,7.2,,66.6,-265,-41,-4,1025.66,76.5,0
"2020-11-07 16:12:39+00",7.2,8.2,,67,-316,-24,19,1025.59,76.7,0
"2020-11-07 16:17:39+00",6.5,7.5,,67.3,-276,-25,-5,1025.54,76.8,0
"2020-11-07 16:22:39+00",7.2,9.2,,67.6,-315,-19,11,1025.31,77,0
"2020-11-07 16:27:39+00",7.9,8.9,,67.9,-356,-2,12,1025.27,76.8,0
"2020-11-07 16:32:39+00",6.7,7.7,,68.1,-291,35,18,1025.09,76.6,0
"2020-11-07 16:37:39+00",8.0,9.0,,68.3,-361,-25,21,1025.06,76.8,0
"2020-11-07 16:42:39+00",7.9,8.9,,68.6,-346,100,37,1025.03,76.9,0
"2020-11-07 16:47:39+00",6.8,7.8,,68.8,-297,42,5,1024.94,76.6,0
"2020-11-07 16:52:39+00",6.5,7.5,,68.9,-284,68,4,1024.8,76.8,0
"2020-11-07 16:57:39+00",6.6,7.6,,69.5,-286,60,13,1024.8,76.9,0
"2020-11-07 17:02:39+00",6.1,7.1,,69.5,-276,-3,19,1024.8,77.2,0
"2020-11-07 17:07:39+00",4.7,5.7,,69.5,-171,-107,15,1024.7,76.3,0
"2020-11-07 17:12:39+00",4.3,4.3,,69.4,-53,-169,-18,1024.7,75.6,0
"2020-11-07 17:17:39+00",4.0,6.0,,69.3,-86,-147,-1,1024.62,74.8,0
"2020-11-07 17:22:39+00",5.3,7.3,,69.6,-177,-148,17,1024.62,74.5,0
"2020-11-07 17:27:39+00",3.2,5.2,,69.9,-105,-44,-12,1024.61,74.8,0
"2020-11-07 17:32:39+00",6.0,7.0,,69.8,21,-244,-6,1024.49,73.8,0
"2020-11-07 17:37:39+00",3.8,4.8,,69.7,-24,-137,21,1024.57,72.7,0
"2020-11-07 17:42:39+00",4.3,5.3,,70.2,32,-154,5,1024.58,72.9,0
"2020-11-07 17:47:39+00",7.1,9.1,,69.4,161,-269,-2,1024.58,72.1,0
"2020-11-07 17:52:39+00",6.9,8.9,,67.7,77,-268,2,1024.55,70.1,0
"2020-11-07 17:57:39+00",6.2,7.2,,68,65,-268,-5,1024.59,69.8,0
"2020-11-07 18:02:39+00",7.4,8.4,,66.5,66,-296,7,1024.56,68.8,0
"2020-11-07 18:07:39+00",6.6,7.6,,66.1,124,-261,11,1024.59,68.3,0
"2020-11-07 18:12:39+00",6.7,8.7,,66.8,41,-280,10,1024.47,68.7,0
"2020-11-07 18:17:39+00",7.7,9.7,,67.6,52,-319,-13,1024.41,69.1,0
"2020-11-07 18:22:39+00",7.0,9.0,,67.6,-12,-281,1,1024.35,69.1,0
"2020-11-07 18:27:39+00",5.7,7.7,,68.6,-21,-242,-17,1024.34,69.9,0
"2020-11-07 18:32:39+00",5.6,7.6,,68.6,-34,-240,-7,1024.25,69.9,0
"2020-11-07 18:37:39+00",5.7,8.7,,69.2,-18,-232,8,1024.22,70.5,0
"2020-11-07 18:42:39+00",8.1,9.1,,69.7,-62,-336,-5,1024.19,71.1,0
"2020-11-07 18:47:39+00",7.0,9.0,,69.8,24,-305,-2,1024.06,71.3,0
"2020-11-07 18:52:39+00",6.5,7.5,,69.5,-53,-263,-18,1024.1,70.8,0
"2020-11-07 18:57:39+00",6.6,8.6,,70,-95,-258,21,1024.06,71.5,0
"2020-11-07 19:02:39+00",7.3,9.3,,70,-86,-302,4,1024.02,71.5,0
"2020-11-07 19:07:39+00",8.3,10.3,,69.4,66,-351,4,1024.14,70.9,0
"2020-11-07 19:12:39+00",7.8,9.8,,68.2,30,-321,-25,1024.15,69.6,0
"2020-11-07 19:17:39+00",7.1,8.1,,68,43,-297,-22,1024.18,69.2,0
"2020-11-07 19:22:39+00",5.1,7.1,,69.1,-22,-194,31,1024.19,69.9,0
"2020-11-07 19:27:39+00",6.8,7.8,,68.5,-52,-272,-1,1024.16,69.4,0
"2020-11-07 19:32:39+00",9.4,11.4,,68.5,-192,-378,19,1024.11,69.7,0
"2020-11-07 19:37:39+00",8.3,9.3,,68.3,-175,-321,-1,1024.02,69.7,0
"2020-11-07 19:42:39+00",9.8,10.8,,68.5,-187,-387,-8,1024.02,69.7,0
"2020-11-07 19:47:39+00",7.6,10.6,,68.6,-169,-279,23,1024.03,69.7,0
"2020-11-07 19:52:39+00",8.0,11.0,,68.6,-132,-331,14,1024.04,69.8,0
"2020-11-07 19:57:39+00",9.9,11.9,,68.4,-161,-395,4,1024,69.7,0
"2020-11-07 20:02:39+00",9.5,11.5,,68.5,-186,-390,3,1024.01,69.5,0
"2020-11-07 20:07:39+00",9.8,10.8,,68.5,-169,-391,5,1023.95,69.4,0
"2020-11-07 20:12:39+00",9.7,11.7,,68.5,-181,-393,2,1024,69.3,0
"2020-11-07 20:17:39+00",9.9,10.9,,68.5,-197,-399,4,1024.05,69.2,0
"2020-11-07 20:22:39+00",8.2,10.2,,68.6,-197,-308,5,1024.16,69.3,0
"2020-11-07 20:27:39+00",7.2,9.2,,68.5,-171,-267,-10,1024.16,69.4,0
"2020-11-07 20:32:39+00",7.2,8.2,,68.4,-150,-281,-3,1024.15,69.3,0
"2020-11-07 20:37:39+00",4.3,5.3,,68.2,-102,-152,10,1024.15,69.4,0
"2020-11-07 20:42:39+00",4.6,5.6,,68.1,-106,-165,-1,1024.13,69.5,0
"2020-11-07 20:47:39+00",4.9,6.9,,67.8,-122,-190,2,1024.07,69.3,0
"2020-11-07 20:52:39+00",7.0,9.0,,67.5,-136,-282,-1,1024.06,68.9,0
"2020-11-07 20:57:39+00",7.2,8.2,,67.1,-115,-291,1,1024.15,68.2,0
"2020-11-07 21:02:39+00",7.8,9.8,,67,-114,-310,-3,1024.22,67.7,0
"2020-11-07 21:07:39+00",7.4,8.4,,66.7,-102,-302,-4,1024.18,67.1,0
"2020-11-07 21:12:39+00",7.0,8.0,,66.3,-115,-273,-5,1024.16,66.6,0
"2020-11-07 21:17:39+00",7.2,8.2,,65.7,-132,-288,-2,1024.19,66.1,0
"2020-11-07 21:22:39+00",7.4,8.4,,65.2,-147,-295,-4,1024.2,65.6,0
"2020-11-07 21:27:39+00",9.1,10.1,,64.9,-177,-358,-2,1024.17,65,0
"2020-11-07 21:32:39+00",8.7,9.7,,64.7,-168,-347,-3,1024.24,64.3,0
"2020-11-07 21:37:39+00",9.2,9.2,,64.7,-203,-370,-2,1024.3,63.5,0
"2020-11-07 21:42:39+00",9.7,10.7,,64.8,-202,-392,-1,1024.41,62.7,0
"2020-11-07 21:47:39+00",7.6,7.6,,64.6,-198,-285,3,1024.48,62.2,0
"2020-11-07 21:52:39+00",8.6,8.6,,64.1,-210,-314,-3,1024.44,61.5,0
"2020-11-07 21:57:39+00",8.0,9.0,,64,-211,-299,-4,1024.41,60.9,0
"2020-11-07 22:02:39+00",8.9,9.9,,64,-226,-334,-8,1024.41,60.7,0
"2020-11-07 22:07:39+00",8.3,9.3,,63.7,-247,-305,-4,1024.53,60.5,0
"2020-11-07 22:12:39+00",8.7,9.7,,63.6,-241,-331,-3,1024.59,60.4,0
"2020-11-07 22:17:39+00",9.3,10.3,,63.5,-259,-359,2,1024.65,60,0
"2020-11-07 22:22:39+00",9.1,10.1,,62.8,-274,-352,-2,1024.59,59.7,0
"2020-11-07 22:27:39+00",10.2,11.2,,62.2,-296,-368,-2,1024.66,59.4,0
"2020-11-07 22:32:39+00",11.0,12.0,,62,-324,-379,2,1024.79,59.2,0
"2020-11-07 22:37:39+00",10.5,11.5,,62.2,-308,-366,4,1024.81,59.2,0
"2020-11-07 22:42:39+00",11.3,12.3,,62.4,-334,-357,1,1024.8,59.3,0
"2020-11-07 22:47:39+00",10.7,10.7,,62.3,-312,-350,-1,1024.82,59.1,0
"2020-11-07 22:52:39+00",11.0,12.0,,62,-320,-347,0,1024.76,58.9,0
"2020-11-07 22:57:39+00",11.1,12.1,,61.9,-332,-338,1,1024.91,58.6,0
"2020-11-07 23:02:39+00",10.0,11.0,,61.2,-294,-336,0,1024.88,58.3,0
"2020-11-07 23:07:39+00",9.4,10.4,,60.9,-274,-344,0,1025.01,58.1,0
"2020-11-07 23:12:39+00",10.4,11.4,,60.7,-315,-317,-2,1025.03,58,0
"2020-11-07 23:17:39+00",10.1,11.1,,60.8,-337,-288,1,1024.99,57.9,0
"2020-11-07 23:22:39+00",10.1,11.1,,60.9,-344,-284,0,1024.96,57.7,0
"2020-11-07 23:27:39+00",10.1,11.1,,60.9,-339,-287,0,1024.93,57.5,0
"2020-11-07 23:32:39+00",10.2,11.2,,60.7,-336,-295,2,1025.01,57.3,0
"2020-11-07 23:37:39+00",10.6,11.6,,60.5,-327,-318,0,1025.05,57.1,0
"2020-11-07 23:42:39+00",9.9,10.9,,60.4,-348,-274,1,1025.09,56.9,0
"2020-11-07 23:47:39+00",10.4,11.4,,60.5,-363,-286,3,1025.08,56.7,0
"2020-11-07 23:52:39+00",10.3,10.3,,60.4,-337,-302,1,1025.12,56.5,0
"2020-11-07 23:57:39+00",11.1,12.1,,60.3,-337,-333,-1,1025.15,56.3,0
